Location: Bieujac
(44.5398°N, 0.1549°W)
Time: 07:58:33
(UTC+00:00)

Cosmos 1515 Rocket - Pass Details

Date: 17 November 2019
Orbit: 605 x 631 km, 82.5° (Epoch: 15 December)

Event Time Altitude Azimuth Distance (km) Brightness Sun altitude
Rises 06:03:19 0° 346° (NNW) 2,875 6.7 -10.1°
Reaches altitude 10° 06:05:35 10° 341° (NNW) 1,965 5.8 -9.7°
Maximum altitude 06:09:46 50° 266° (W) 778 3.7 -9.0°
Drops below altitude 10° 06:13:56 10° 192° (SSW) 1,950 6.2 -8.3°
Sets 06:16:11 0° 187° (S) 2,850 7.1 -7.9°
